Time,TemperatureF,DewpointF,PressureIn,WindDirection,WindDirectionDegrees,WindSpeedMPH,WindSpeedGustMPH,Humidity,HourlyPrecipIn,Conditions,Clouds,dailyrainin,SoftwareType,DateUTC
2013-10-11 00:02:00,68.7,51.4,29.69,SE,135,0.0,10.0,54,0.00,,FEW090,0.00,VWS V14.00,2013-10-11 05:02:00,
2013-10-11 00:07:00,68.7,51.4,29.70,SE,144,4.0,10.0,54,0.00,,FEW090,0.00,VWS V14.00,2013-10-11 05:07:00,
2013-10-11 00:12:00,68.6,51.3,29.70,SE,139,2.0,14.0,54,0.00,,FEW090,0.00,VWS V14.00,2013-10-11 05:12:00,
2013-10-11 00:17:00,68.5,51.2,29.70,SSE,166,4.0,14.0,54,0.00,,FEW090,0.00,VWS V14.00,2013-10-11 05:17:00,
2013-10-11 00:22:00,68.4,51.1,29.69,SSE,165,3.0,13.0,54,0.00,,FEW090,0.00,VWS V14.00,2013-10-11 05:22:00,
2013-10-11 00:27:00,68.4,51.1,29.70,SE,144,6.0,13.0,54,0.00,,FEW090,0.00,VWS V14.00,2013-10-11 05:27:00,
2013-10-11 00:32:00,68.3,51.0,29.70,SE,142,8.0,13.0,54,0.00,,FEW090,0.00,VWS V14.00,2013-10-11 05:32:00,
2013-10-11 00:37:00,68.3,51.0,29.70,SE,146,2.0,13.0,54,0.00,,FEW090,0.00,VWS V14.00,2013-10-11 05:37:00,
2013-10-11 00:42:00,68.2,50.9,29.70,SSE,155,1.0,11.0,54,0.00,,FEW090,0.00,VWS V14.00,2013-10-11 05:42:00,
2013-10-11 00:47:00,68.1,50.8,29.70,SE,136,0.0,14.0,54,0.00,,FEW090,0.00,VWS V14.00,2013-10-11 05:47:00,
2013-10-11 00:52:00,68.0,50.8,29.70,SE,141,11.0,12.0,54,0.00,,FEW090,0.00,VWS V14.00,2013-10-11 05:52:00,
2013-10-11 00:57:00,67.8,50.6,29.70,SE,141,7.0,12.0,54,0.00,,FEW090,0.00,VWS V14.00,2013-10-11 05:57:00,
2013-10-11 01:02:00,67.8,51.1,29.70,SE,145,3.0,8.0,55,0.00,,FEW085,0.00,VWS V14.00,2013-10-11 06:02:00,
2013-10-11 01:07:00,67.7,51.0,29.70,South,176,5.0,12.0,55,0.00,,FEW085,0.00,VWS V14.00,2013-10-11 06:07:00,
2013-10-11 01:12:00,67.7,51.0,29.70,SE,136,10.0,15.0,55,0.00,,FEW085,0.00,VWS V14.00,2013-10-11 06:12:00,
2013-10-11 01:17:00,67.6,50.9,29.70,SSE,147,7.0,16.0,55,0.00,,FEW085,0.00,VWS V14.00,2013-10-11 06:17:00,
2013-10-11 01:22:00,67.7,50.5,29.70,SE,139,4.0,13.0,54,0.00,,FEW085,0.00,VWS V14.00,2013-10-11 06:22:00,
2013-10-11 01:27:00,67.8,50.6,29.70,South,172,2.0,13.0,54,0.00,,FEW085,0.00,VWS V14.00,2013-10-11 06:27:00,
2013-10-11 01:32:00,67.6,50.9,29.70,SSE,152,0.0,10.0,55,0.00,,FEW085,0.00,VWS V14.00,2013-10-11 06:32:00,
2013-10-11 01:38:00,67.4,50.7,29.70,SE,137,8.0,14.0,55,0.00,,FEW085,0.00,VWS V14.00,2013-10-11 06:38:00,
2013-10-11 01:43:00,67.5,50.3,29.70,SE,140,5.0,13.0,54,0.00,,FEW085,0.00,VWS V14.00,2013-10-11 06:43:00,
2013-10-11 01:48:00,67.5,50.8,29.70,SE,134,3.0,18.0,55,0.00,,FEW085,0.00,VWS V14.00,2013-10-11 06:48:00,
2013-10-11 01:53:00,67.5,50.8,29.70,SE,146,11.0,12.0,55,0.00,,FEW085,0.00,VWS V14.00,2013-10-11 06:53:00,
2013-10-11 01:58:00,67.4,50.7,29.70,SE,145,3.0,12.0,55,0.00,,FEW085,0.00,VWS V14.00,2013-10-11 06:58:00,
2013-10-11 02:03:00,67.4,50.7,29.70,SE,130,5.0,12.0,55,0.00,,FEW110,0.00,VWS V14.00,2013-10-11 07:03:00,
2013-10-11 02:08:00,67.4,50.2,29.70,SE,140,5.0,17.0,54,0.00,,FEW110,0.00,VWS V14.00,2013-10-11 07:08:00,
2013-10-11 02:13:00,67.5,50.8,29.70,SSE,154,3.0,17.0,55,0.00,,FEW110,0.00,VWS V14.00,2013-10-11 07:13:00,
2013-10-11 02:18:00,67.5,50.8,29.70,SSE,156,5.0,17.0,55,0.00,,FEW110,0.00,VWS V14.00,2013-10-11 07:18:00,
2013-10-11 02:23:00,67.4,50.7,29.70,SSE,160,10.0,11.0,55,0.00,,FEW110,0.00,VWS V14.00,2013-10-11 07:23:00,
2013-10-11 02:28:00,67.3,50.6,29.70,SSE,151,1.0,11.0,55,0.00,,FEW110,0.00,VWS V14.00,2013-10-11 07:28:00,
2013-10-11 02:33:00,67.2,51.0,29.70,SE,139,3.0,7.0,56,0.00,,FEW110,0.00,VWS V14.00,2013-10-11 07:33:00,
2013-10-11 02:38:00,67.3,51.1,29.70,SSE,155,3.0,13.0,56,0.00,,FEW110,0.00,VWS V14.00,2013-10-11 07:38:00,
2013-10-11 02:43:00,67.3,51.1,29.70,SSE,149,1.0,10.0,56,0.00,,FEW110,0.00,VWS V14.00,2013-10-11 07:43:00,
2013-10-11 02:48:00,67.3,51.6,29.70,SE,144,3.0,11.0,57,0.00,,FEW110,0.00,VWS V14.00,2013-10-11 07:48:00,
2013-10-11 02:53:00,67.2,51.9,29.70,SE,144,0.0,9.0,58,0.00,,FEW110,0.00,VWS V14.00,2013-10-11 07:53:00,
2013-10-11 02:58:00,66.9,52.1,29.70,SE,143,1.0,10.0,59,0.00,,FEW110,0.00,VWS V14.00,2013-10-11 07:58:00,
2013-10-11 03:03:00,66.7,51.9,29.70,SE,140,4.0,11.0,59,0.00,,-RA,0.00,VWS V14.00,2013-10-11 08:03:00,
2013-10-11 03:08:00,66.5,51.8,29.69,SE,142,6.0,13.0,59,0.00,,-RA,0.00,VWS V14.00,2013-10-11 08:08:00,
2013-10-11 03:13:00,66.5,51.3,29.69,SSE,150,10.0,11.0,58,0.00,,-RA,0.00,VWS V14.00,2013-10-11 08:13:00,
2013-10-11 03:18:00,66.3,52.0,29.70,SSE,154,10.0,14.0,60,0.00,,-RA,0.00,VWS V14.00,2013-10-11 08:18:00,
2013-10-11 03:23:00,66.0,51.7,29.70,SE,141,6.0,7.0,60,0.00,,-RA,0.00,VWS V14.00,2013-10-11 08:23:00,
2013-10-11 03:28:00,65.8,51.5,29.71,SE,142,3.0,11.0,60,0.00,,-RA,0.00,VWS V14.00,2013-10-11 08:28:00,
2013-10-11 03:33:00,65.8,51.1,29.71,SE,143,0.0,9.0,59,0.00,,-RA,0.00,VWS V14.00,2013-10-11 08:33:00,
2013-10-11 03:38:00,65.7,51.0,29.71,SE,135,2.0,14.0,59,0.00,,-RA,0.00,VWS V14.00,2013-10-11 08:38:00,
2013-10-11 03:43:00,65.6,50.9,29.71,SE,136,11.0,14.0,59,0.00,,-RA,0.00,VWS V14.00,2013-10-11 08:43:00,
2013-10-11 03:48:00,65.3,51.5,29.71,SSE,161,6.0,14.0,61,0.00,,-RA,0.00,VWS V14.00,2013-10-11 08:48:00,
2013-10-11 03:53:00,64.8,51.9,29.71,ESE,115,3.0,11.0,63,0.00,,-RA,0.00,VWS V14.00,2013-10-11 08:53:00,
2013-10-11 03:58:00,64.3,52.3,29.70,SSE,148,0.0,13.0,65,0.00,,-RA,0.00,VWS V14.00,2013-10-11 08:58:00,
2013-10-11 04:03:00,63.7,52.1,29.70,SE,129,0.0,10.0,66,0.00,,-RA,0.00,VWS V14.00,2013-10-11 09:03:00,
2013-10-11 04:08:00,63.2,52.5,29.70,SE,142,12.0,12.0,68,0.00,,-RA,0.00,VWS V14.00,2013-10-11 09:08:00,
2013-10-11 04:13:00,62.9,52.2,29.70,SE,138,2.0,9.0,68,0.00,,-RA,0.00,VWS V14.00,2013-10-11 09:13:00,
2013-10-11 04:18:00,62.5,52.2,29.69,SE,137,3.0,9.0,69,0.00,,-RA,0.00,VWS V14.00,2013-10-11 09:18:00,
2013-10-11 04:23:00,62.2,52.3,29.69,SE,135,3.0,3.0,70,0.00,,-RA,0.00,VWS V14.00,2013-10-11 09:23:00,
2013-10-11 04:28:00,62.0,52.1,29.69,SE,130,1.0,12.0,70,0.00,,-RA,0.00,VWS V14.00,2013-10-11 09:28:00,
2013-10-11 04:33:00,62.0,52.1,29.68,ESE,123,0.0,7.0,70,0.00,,-RA,0.00,VWS V14.00,2013-10-11 09:33:00,
2013-10-11 04:38:00,61.9,52.0,29.68,ESE,116,0.0,10.0,70,0.00,,-RA,0.00,VWS V14.00,2013-10-11 09:38:00,
2013-10-11 04:43:00,62.1,52.2,29.68,SE,125,2.0,9.0,70,0.00,,-RA,0.00,VWS V14.00,2013-10-11 09:43:00,
2013-10-11 04:48:00,62.4,51.7,29.68,SE,138,8.0,11.0,68,0.00,,-RA,0.00,VWS V14.00,2013-10-11 09:48:00,
2013-10-11 04:54:00,62.6,51.9,29.67,SE,133,0.0,10.0,68,0.00,,-RA,0.00,VWS V14.00,2013-10-11 09:54:00,
2013-10-11 04:59:00,62.9,51.8,29.67,SE,137,3.0,13.0,67,0.00,,-RA,0.00,VWS V14.00,2013-10-11 09:59:00,
2013-10-11 05:04:00,63.2,51.7,29.67,SE,139,3.0,10.0,66,0.00,,-RA,0.00,VWS V14.00,2013-10-11 10:04:00,
2013-10-11 05:09:00,63.3,51.8,29.67,SE,140,2.0,10.0,66,0.00,,-RA,0.00,VWS V14.00,2013-10-11 10:09:00,
2013-10-11 05:14:00,63.3,51.8,29.67,SE,136,4.0,13.0,66,0.00,,-RA,0.00,VWS V14.00,2013-10-11 10:14:00,
2013-10-11 05:19:00,63.3,51.8,29.67,SE,141,6.0,13.0,66,0.00,,-RA,0.00,VWS V14.00,2013-10-11 10:19:00,
2013-10-11 05:24:00,63.2,51.7,29.66,SE,140,5.0,11.0,66,0.00,,-RA,0.00,VWS V14.00,2013-10-11 10:24:00,
2013-10-11 05:29:00,63.3,51.8,29.66,ESE,109,3.0,11.0,66,0.00,,-RA,0.00,VWS V14.00,2013-10-11 10:29:00,
2013-10-11 05:34:00,63.3,51.3,29.66,SE,140,5.0,13.0,65,0.00,,-RA,0.00,VWS V14.00,2013-10-11 10:34:00,
2013-10-11 05:39:00,63.4,51.4,29.66,SE,142,4.0,15.0,65,0.00,,-RA,0.00,VWS V14.00,2013-10-11 10:39:00,
2013-10-11 05:44:00,63.3,51.3,29.66,SE,129,1.0,11.0,65,0.00,,-RA,0.00,VWS V14.00,2013-10-11 10:44:00,
2013-10-11 05:49:00,63.2,51.2,29.65,SSE,153,2.0,15.0,65,0.00,,-RA,0.00,VWS V14.00,2013-10-11 10:49:00,
2013-10-11 05:54:00,63.0,51.5,29.66,SE,135,0.0,15.0,66,0.00,,-RA,0.00,VWS V14.00,2013-10-11 10:54:00,
2013-10-11 05:59:00,62.9,51.0,29.65,SE,126,6.0,15.0,65,0.00,,-RA,0.00,VWS V14.00,2013-10-11 10:59:00,
2013-10-11 06:04:00,62.8,51.3,29.65,SE,145,1.0,15.0,66,0.00,,CLR,0.00,VWS V14.00,2013-10-11 11:04:00,
2013-10-11 06:09:00,62.7,51.2,29.65,SSE,149,9.0,15.0,66,0.00,,CLR,0.00,VWS V14.00,2013-10-11 11:09:00,
2013-10-11 06:14:00,62.8,50.9,29.65,SE,135,3.0,13.0,65,0.00,,CLR,0.00,VWS V14.00,2013-10-11 11:14:00,
2013-10-11 06:19:00,62.8,50.9,29.65,SSE,147,7.0,13.0,65,0.00,,CLR,0.00,VWS V14.00,2013-10-11 11:19:00,
2013-10-11 06:24:00,62.6,50.7,29.65,SSE,150,6.0,13.0,65,0.00,,CLR,0.00,VWS V14.00,2013-10-11 11:24:00,
2013-10-11 06:29:00,62.5,51.0,29.64,SSE,149,3.0,17.0,66,0.00,,CLR,0.00,VWS V14.00,2013-10-11 11:29:00,
2013-10-11 06:34:00,62.4,50.9,29.64,SE,134,16.0,16.0,66,0.00,,CLR,0.00,VWS V14.00,2013-10-11 11:34:00,
2013-10-11 06:39:00,62.3,50.8,29.64,ESE,120,4.0,16.0,66,0.00,,CLR,0.00,VWS V14.00,2013-10-11 11:39:00,
2013-10-11 06:44:00,62.2,50.7,29.64,ESE,112,2.0,14.0,66,0.00,,CLR,0.00,VWS V14.00,2013-10-11 11:44:00,
2013-10-11 06:49:00,62.0,50.9,29.63,SE,128,0.0,14.0,67,0.00,,CLR,0.00,VWS V14.00,2013-10-11 11:49:00,
2013-10-11 06:54:00,61.8,50.7,29.63,ESE,118,3.0,12.0,67,0.00,,CLR,0.00,VWS V14.00,2013-10-11 11:54:00,
2013-10-11 06:59:00,61.6,51.0,29.63,East,101,2.0,12.0,68,0.00,,CLR,0.00,VWS V14.00,2013-10-11 11:59:00,
2013-10-11 07:04:00,61.4,50.8,29.62,ESE,122,3.0,11.0,68,0.00,,CLR,0.00,VWS V14.00,2013-10-11 12:04:00,
2013-10-11 07:09:00,61.2,50.6,29.62,ESE,120,3.0,11.0,68,0.00,,CLR,0.00,VWS V14.00,2013-10-11 12:09:00,
2013-10-11 07:14:00,61.1,50.9,29.63,SE,127,4.0,9.0,69,0.00,,CLR,0.00,VWS V14.00,2013-10-11 12:14:00,
2013-10-11 07:19:00,61.0,50.8,29.63,SE,139,1.0,11.0,69,0.00,,CLR,0.00,VWS V14.00,2013-10-11 12:19:00,
2013-10-11 07:24:00,60.9,50.7,29.63,ESE,119,3.0,9.0,69,0.00,,CLR,0.00,VWS V14.00,2013-10-11 12:24:00,
2013-10-11 07:29:00,60.8,50.6,29.63,ESE,113,0.0,11.0,69,0.00,,CLR,0.00,VWS V14.00,2013-10-11 12:29:00,
2013-10-11 07:34:00,60.6,50.8,29.63,SE,124,0.0,6.0,70,0.00,,CLR,0.00,VWS V14.00,2013-10-11 12:34:00,
2013-10-11 07:39:00,60.5,50.7,29.63,SE,146,0.0,9.0,70,0.00,,CLR,0.00,VWS V14.00,2013-10-11 12:39:00,
2013-10-11 07:44:00,60.4,50.6,29.63,SE,127,0.0,10.0,70,0.00,,CLR,0.00,VWS V14.00,2013-10-11 12:44:00,
2013-10-11 07:49:00,60.3,50.9,29.63,SE,131,1.0,10.0,71,0.00,,CLR,0.00,VWS V14.00,2013-10-11 12:49:00,
2013-10-11 07:54:00,60.2,50.8,29.62,ESE,114,4.0,7.0,71,0.00,,CLR,0.00,VWS V14.00,2013-10-11 12:54:00,
2013-10-11 07:59:00,60.1,50.7,29.62,SE,136,3.0,8.0,71,0.00,,CLR,0.00,VWS V14.00,2013-10-11 12:59:00,
2013-10-11 08:04:00,60.1,50.7,29.61,ESE,116,0.0,15.0,71,0.00,,CLR,0.00,VWS V14.00,2013-10-11 13:04:00,
2013-10-11 08:09:00,60.0,50.6,29.61,SE,124,1.0,15.0,71,0.00,,CLR,0.00,VWS V14.00,2013-10-11 13:09:00,
2013-10-11 08:14:00,60.1,50.7,29.61,SSE,147,4.0,13.0,71,0.00,,CLR,0.00,VWS V14.00,2013-10-11 13:14:00,
2013-10-11 08:19:00,60.1,50.7,29.61,SE,136,4.0,13.0,71,0.00,,CLR,0.00,VWS V14.00,2013-10-11 13:19:00,
2013-10-11 08:24:00,60.2,51.2,29.61,SSE,150,4.0,16.0,72,0.00,,CLR,0.00,VWS V14.00,2013-10-11 13:24:00,
2013-10-11 08:29:00,60.3,51.2,29.61,SSE,153,3.0,16.0,72,0.00,,CLR,0.00,VWS V14.00,2013-10-11 13:29:00,
2013-10-11 08:34:00,60.5,51.4,29.60,SE,131,2.0,11.0,72,0.00,,CLR,0.00,VWS V14.00,2013-10-11 13:34:00,
2013-10-11 08:40:00,60.6,51.2,29.60,East,100,3.0,11.0,71,0.00,,CLR,0.00,VWS V14.00,2013-10-11 13:40:00,
2013-10-11 08:45:00,60.6,51.2,29.60,SE,135,7.0,12.0,71,0.00,,CLR,0.00,VWS V14.00,2013-10-11 13:45:00,
2013-10-11 08:50:00,60.7,51.2,29.60,ESE,116,2.0,4.0,71,0.00,,CLR,0.00,VWS V14.00,2013-10-11 13:50:00,
2013-10-11 08:55:00,60.7,51.2,29.60,SE,127,1.0,15.0,71,0.00,,CLR,0.00,VWS V14.00,2013-10-11 13:55:00,
2013-10-11 09:00:00,60.7,51.2,29.60,ESE,122,7.0,7.0,71,0.00,,CLR,0.00,VWS V14.00,2013-10-11 14:00:00,
2013-10-11 09:05:00,60.7,51.6,29.60,SE,128,0.0,14.0,72,0.00,,CLR,0.00,VWS V14.00,2013-10-11 14:05:00,
2013-10-11 09:10:00,60.8,51.7,29.61,SE,132,1.0,1.0,72,0.00,,CLR,0.00,VWS V14.00,2013-10-11 14:10:00,
2013-10-11 09:15:00,60.8,51.7,29.60,ESE,114,10.0,11.0,72,0.00,,CLR,0.00,VWS V14.00,2013-10-11 14:15:00,
2013-10-11 09:20:00,60.9,51.8,29.60,SE,134,8.0,12.0,72,0.00,,CLR,0.00,VWS V14.00,2013-10-11 14:20:00,
2013-10-11 09:25:00,60.9,51.8,29.60,ESE,108,3.0,14.0,72,0.00,,CLR,0.00,VWS V14.00,2013-10-11 14:25:00,
2013-10-11 09:30:00,61.0,51.9,29.59,ESE,120,4.0,8.0,72,0.00,,CLR,0.00,VWS V14.00,2013-10-11 14:30:00,
2013-10-11 09:35:00,61.2,52.1,29.59,SE,124,0.0,15.0,72,0.00,,CLR,0.00,VWS V14.00,2013-10-11 14:35:00,
2013-10-11 09:40:00,61.4,51.9,29.60,SE,139,2.0,2.0,71,0.00,,CLR,0.00,VWS V14.00,2013-10-11 14:40:00,
2013-10-11 09:45:00,61.5,52.4,29.59,ESE,123,15.0,15.0,72,0.00,,CLR,0.00,VWS V14.00,2013-10-11 14:45:00,
2013-10-11 09:50:00,61.7,52.2,29.59,SE,143,5.0,10.0,71,0.00,,CLR,0.00,VWS V14.00,2013-10-11 14:50:00,
2013-10-11 09:55:00,61.8,52.7,29.59,SE,133,6.0,10.0,72,0.00,,CLR,0.00,VWS V14.00,2013-10-11 14:55:00,
2013-10-11 10:00:00,61.9,52.4,29.58,SE,131,3.0,6.0,71,0.00,,CLR,0.00,VWS V14.00,2013-10-11 15:00:00,
2013-10-11 10:05:00,62.2,52.7,29.58,ESE,118,2.0,14.0,71,0.00,,CLR,0.00,VWS V14.00,2013-10-11 15:05:00,
2013-10-11 10:10:00,62.6,52.7,29.58,SE,129,1.0,10.0,70,0.00,,CLR,0.00,VWS V14.00,2013-10-11 15:10:00,
2013-10-11 10:15:00,63.4,53.5,29.59,ESE,112,9.0,18.0,70,0.00,,CLR,0.00,VWS V14.00,2013-10-11 15:15:00,
2013-10-11 10:20:00,63.8,53.5,29.59,SE,146,12.0,15.0,69,0.00,,CLR,0.00,VWS V14.00,2013-10-11 15:20:00,
2013-10-11 10:25:00,64.0,53.2,29.59,SSW,192,0.0,22.0,68,0.00,,CLR,0.00,VWS V14.00,2013-10-11 15:25:00,
2013-10-11 10:30:00,64.0,53.2,29.57,SE,130,9.0,10.0,68,0.00,,CLR,0.00,VWS V14.00,2013-10-11 15:30:00,
2013-10-11 10:35:00,64.1,53.3,29.57,SE,125,3.0,16.0,68,0.00,,CLR,0.00,VWS V14.00,2013-10-11 15:35:00,
2013-10-11 10:40:00,64.2,53.4,29.58,SE,138,7.0,7.0,68,0.00,,CLR,0.00,VWS V14.00,2013-10-11 15:40:00,
2013-10-11 10:45:00,64.3,53.5,29.57,SE,145,6.0,16.0,68,0.00,,CLR,0.00,VWS V14.00,2013-10-11 15:45:00,
2013-10-11 10:50:00,64.6,53.8,29.57,SSE,161,7.0,11.0,68,0.00,,CLR,0.00,VWS V14.00,2013-10-11 15:50:00,
2013-10-11 10:55:00,64.8,54.0,29.57,ESE,114,4.0,22.0,68,0.00,,CLR,0.00,VWS V14.00,2013-10-11 15:55:00,
2013-10-11 11:00:00,65.6,54.4,29.56,SSE,152,13.0,14.0,67,0.00,,CLR,0.00,VWS V14.00,2013-10-11 16:00:00,
2013-10-11 11:05:00,66.0,54.3,29.55,SE,139,4.0,17.0,66,0.00,,CLR,0.00,VWS V14.00,2013-10-11 16:05:00,
2013-10-11 11:10:00,66.4,54.7,29.56,SE,142,6.0,9.0,66,0.00,,CLR,0.00,VWS V14.00,2013-10-11 16:10:00,
2013-10-11 11:15:00,66.7,54.6,29.55,SE,144,3.0,18.0,65,0.00,,CLR,0.00,VWS V14.00,2013-10-11 16:15:00,
2013-10-11 11:20:00,66.8,54.7,29.54,SE,141,14.0,19.0,65,0.00,,CLR,0.00,VWS V14.00,2013-10-11 16:20:00,
2013-10-11 11:25:00,66.8,54.7,29.54,SE,126,4.0,20.0,65,0.00,,CLR,0.00,VWS V14.00,2013-10-11 16:25:00,
2013-10-11 11:30:00,66.3,54.2,29.53,East,96,12.0,12.0,65,0.00,,CLR,0.00,VWS V14.00,2013-10-11 16:30:00,
2013-10-11 11:35:00,66.1,54.8,29.53,East,91,3.0,16.0,67,0.00,,CLR,0.00,VWS V14.00,2013-10-11 16:35:00,
2013-10-11 11:40:00,65.9,54.2,29.53,SE,140,1.0,6.0,66,0.00,,CLR,0.00,VWS V14.00,2013-10-11 16:40:00,
2013-10-11 11:45:00,65.6,54.4,29.54,SE,129,3.0,13.0,67,0.00,,CLR,0.00,VWS V14.00,2013-10-11 16:45:00,
2013-10-11 11:50:00,65.3,54.1,29.54,East,99,8.0,8.0,67,0.00,,CLR,0.00,VWS V14.00,2013-10-11 16:50:00,
2013-10-11 11:55:00,65.1,53.9,29.54,ESE,111,3.0,16.0,67,0.00,,CLR,0.00,VWS V14.00,2013-10-11 16:55:00,
2013-10-11 12:01:00,64.9,54.1,29.55,ESE,118,6.0,9.0,68,0.00,,SCT100,0.00,VWS V14.00,2013-10-11 17:01:00,
2013-10-11 12:06:00,64.8,54.0,29.54,SE,134,2.0,16.0,68,0.00,,SCT100,0.00,VWS V14.00,2013-10-11 17:06:00,
2013-10-11 12:11:00,64.5,54.5,29.55,SE,143,12.0,12.0,70,0.00,,SCT100,0.00,VWS V14.00,2013-10-11 17:11:00,
2013-10-11 12:16:00,63.8,55.0,29.55,SSE,156,3.0,21.0,73,0.01,,SCT100,0.01,VWS V14.00,2013-10-11 17:16:00,
2013-10-11 12:21:00,62.5,55.2,29.53,SE,146,2.0,12.0,77,0.03,,SCT100,0.03,VWS V14.00,2013-10-11 17:21:00,
2013-10-11 12:26:00,61.8,55.6,29.54,SE,143,2.0,13.0,80,0.04,,SCT100,0.04,VWS V14.00,2013-10-11 17:26:00,
2013-10-11 12:31:00,61.4,55.9,29.54,SE,132,3.0,7.0,82,0.04,,-RA,0.04,VWS V14.00,2013-10-11 17:31:00,
2013-10-11 12:36:00,61.1,55.9,29.54,SE,137,3.0,10.0,83,0.04,,-RA,0.04,VWS V14.00,2013-10-11 17:36:00,
2013-10-11 12:41:00,60.9,55.7,29.58,SSE,164,6.0,10.0,83,0.04,,-RA,0.04,VWS V14.00,2013-10-11 17:41:00,
2013-10-11 12:46:00,60.5,56.0,29.54,SE,139,7.0,10.0,85,0.22,,-RA,0.22,VWS V14.00,2013-10-11 17:46:00,
2013-10-11 12:51:00,60.0,55.8,29.52,ESE,113,7.0,9.0,86,0.25,, +RA,0.25,VWS V14.00,2013-10-11 17:51:00,
2013-10-11 12:56:00,59.8,55.9,29.51,ESE,110,3.0,13.0,87,0.26,, +RA,0.26,VWS V14.00,2013-10-11 17:56:00,
2013-10-11 13:01:00,59.8,56.2,29.51,ESE,111,3.0,5.0,88,0.27,, +RA,0.27,VWS V14.00,2013-10-11 18:01:00,
2013-10-11 13:06:00,60.0,56.8,29.51,SE,137,5.0,8.0,89,0.27,,-RA,0.27,VWS V14.00,2013-10-11 18:06:00,
2013-10-11 13:11:00,60.4,57.2,29.52,SE,140,0.0,0.0,89,0.27,,-RA,0.27,VWS V14.00,2013-10-11 18:11:00,
2013-10-11 13:16:00,60.6,57.3,29.51,ESE,115,0.0,13.0,89,0.27,,-RA,0.27,VWS V14.00,2013-10-11 18:16:00,
2013-10-11 13:21:00,60.6,57.0,29.51,SE,138,2.0,9.0,88,0.25,,BKN070,0.27,VWS V14.00,2013-10-11 18:21:00,
2013-10-11 13:26:00,60.7,57.1,29.51,SE,143,0.0,10.0,88,0.25,,BKN070,0.27,VWS V14.00,2013-10-11 18:26:00,
2013-10-11 13:31:00,60.7,57.1,29.50,SE,125,0.0,9.0,88,0.23,,BKN070,0.27,VWS V14.00,2013-10-11 18:31:00,
2013-10-11 13:36:00,60.8,57.2,29.50,SE,143,3.0,9.0,88,0.23,,BKN070,0.27,VWS V14.00,2013-10-11 18:36:00,
2013-10-11 13:41:00,60.9,57.3,29.48,East,101,3.0,9.0,88,0.23,,BKN070,0.27,VWS V14.00,2013-10-11 18:41:00,
2013-10-11 13:46:00,61.1,57.5,29.48,ESE,110,1.0,9.0,88,0.23,,BKN070,0.27,VWS V14.00,2013-10-11 18:46:00,
2013-10-11 13:51:00,61.4,57.5,29.48,SE,124,4.0,12.0,87,0.02,,BKN070,0.27,VWS V14.00,2013-10-11 18:51:00,
2013-10-11 13:56:00,61.9,58.0,29.47,East,95,4.0,12.0,87,0.02,,BKN070,0.27,VWS V14.00,2013-10-11 18:56:00,
2013-10-11 14:01:00,62.6,58.4,29.47,ESE,105,5.0,12.0,86,0.01,,,0.27,VWS V14.00,2013-10-11 19:01:00,
2013-10-11 14:06:00,63.3,59.0,29.45,ESE,115,8.0,13.0,86,0.01,,,0.27,VWS V14.00,2013-10-11 19:06:00,
2013-10-11 14:11:00,64.0,59.1,29.46,ESE,110,6.0,14.0,84,0.00,,,0.27,VWS V14.00,2013-10-11 19:11:00,
2013-10-11 14:16:00,64.2,58.9,29.46,East,86,6.0,14.0,83,0.00,,,0.27,VWS V14.00,2013-10-11 19:16:00,
2013-10-11 14:21:00,64.3,58.7,29.46,SE,134,12.0,17.0,82,0.00,,,0.27,VWS V14.00,2013-10-11 19:21:00,
2013-10-11 14:26:00,64.3,58.7,29.45,ESE,121,6.0,17.0,82,0.00,,,0.27,VWS V14.00,2013-10-11 19:26:00,
2013-10-11 14:31:00,64.2,57.9,29.45,ESE,109,15.0,15.0,80,0.00,,,0.27,VWS V14.00,2013-10-11 19:31:00,
2013-10-11 14:36:00,64.2,57.9,29.45,SE,146,12.0,18.0,80,0.00,,,0.27,VWS V14.00,2013-10-11 19:36:00,
2013-10-11 14:41:00,64.2,57.6,29.45,SE,146,15.0,21.0,79,0.00,,,0.27,VWS V14.00,2013-10-11 19:41:00,
2013-10-11 14:46:00,64.2,57.6,29.46,SE,143,3.0,24.0,79,0.00,,,0.27,VWS V14.00,2013-10-11 19:46:00,
2013-10-11 14:51:00,64.2,57.6,29.46,SSE,149,5.0,13.0,79,0.00,,OVC030,0.27,VWS V14.00,2013-10-11 19:51:00,
2013-10-11 14:56:00,64.2,57.6,29.46,SE,134,9.0,18.0,79,0.00,,OVC030,0.27,VWS V14.00,2013-10-11 19:56:00,
2013-10-11 15:01:00,64.3,57.3,29.46,SE,129,4.0,18.0,78,0.00,,OVC030,0.27,VWS V14.00,2013-10-11 20:01:00,
2013-10-11 15:07:00,64.3,57.3,29.46,SSE,150,11.0,19.0,78,0.00,,OVC030,0.27,VWS V14.00,2013-10-11 20:07:00,
2013-10-11 15:12:00,64.4,57.4,29.45,SE,130,8.0,23.0,78,0.00,,OVC030,0.27,VWS V14.00,2013-10-11 20:12:00,
2013-10-11 15:17:00,64.4,57.4,29.46,SSE,148,2.0,23.0,78,0.00,,OVC030,0.27,VWS V14.00,2013-10-11 20:17:00,
2013-10-11 15:22:00,64.4,57.4,29.45,SSE,150,6.0,17.0,78,0.00,,OVC030,0.27,VWS V14.00,2013-10-11 20:22:00,
2013-10-11 15:27:00,64.8,57.4,29.45,SSE,165,4.0,22.0,77,0.00,,OVC030,0.27,VWS V14.00,2013-10-11 20:27:00,
2013-10-11 15:32:00,65.2,57.5,29.45,East,92,5.0,19.0,76,0.00,,OVC030,0.27,VWS V14.00,2013-10-11 20:32:00,
2013-10-11 15:37:00,65.4,57.7,29.44,ESE,117,6.0,19.0,76,0.00,,OVC030,0.27,VWS V14.00,2013-10-11 20:37:00,
2013-10-11 15:42:00,65.3,57.5,29.45,SE,141,8.0,20.0,76,0.00,,OVC030,0.27,VWS V14.00,2013-10-11 20:42:00,
2013-10-11 15:47:00,65.1,57.7,29.44,SSE,158,1.0,26.0,77,0.00,,OVC030,0.27,VWS V14.00,2013-10-11 20:47:00,
2013-10-11 15:52:00,64.5,57.8,29.44,SE,135,5.0,17.0,79,0.00,,OVC030,0.27,VWS V14.00,2013-10-11 20:52:00,
2013-10-11 15:57:00,64.1,57.8,29.43,ESE,120,6.0,17.0,80,0.00,,OVC030,0.27,VWS V14.00,2013-10-11 20:57:00,
2013-10-11 16:02:00,63.9,57.6,29.43,SE,132,3.0,16.0,80,0.00,,BKN032,0.27,VWS V14.00,2013-10-11 21:02:00,
2013-10-11 16:07:00,63.7,57.4,29.42,SE,132,7.0,21.0,80,0.00,,BKN032,0.27,VWS V14.00,2013-10-11 21:07:00,
2013-10-11 16:12:00,63.9,57.6,29.41,ESE,123,4.0,13.0,80,0.00,,BKN032,0.27,VWS V14.00,2013-10-11 21:12:00,
2013-10-11 16:17:00,64.0,57.4,29.41,SE,132,7.0,17.0,79,0.00,,BKN032,0.27,VWS V14.00,2013-10-11 21:17:00,
2013-10-11 16:22:00,64.1,57.5,29.41,SE,134,7.0,18.0,79,0.00,,BKN120,0.27,VWS V14.00,2013-10-11 21:22:00,
2013-10-11 16:27:00,63.9,57.3,29.40,ESE,115,3.0,23.0,79,0.00,,BKN120,0.27,VWS V14.00,2013-10-11 21:27:00,
2013-10-11 16:32:00,63.7,57.1,29.39,ESE,116,4.0,13.0,79,0.00,,BKN120,0.27,VWS V14.00,2013-10-11 21:32:00,
2013-10-11 16:37:00,63.5,57.2,29.39,ESE,114,4.0,25.0,80,0.00,,BKN120,0.27,VWS V14.00,2013-10-11 21:37:00,
2013-10-11 16:42:00,63.4,56.8,29.39,East,99,0.0,8.0,79,0.00,,BKN120,0.27,VWS V14.00,2013-10-11 21:42:00,
2013-10-11 16:47:00,63.3,57.0,29.39,ESE,121,6.0,14.0,80,0.00,,BKN120,0.27,VWS V14.00,2013-10-11 21:47:00,
2013-10-11 16:52:00,63.2,56.9,29.39,SE,124,1.0,11.0,80,0.00,,BKN120,0.27,VWS V14.00,2013-10-11 21:52:00,
2013-10-11 16:57:00,63.2,57.3,29.39,ESE,116,6.0,22.0,81,0.00,,BKN120,0.27,VWS V14.00,2013-10-11 21:57:00,
2013-10-11 17:02:00,62.7,57.1,29.38,ESE,114,1.0,16.0,82,0.01,,-RA,0.28,VWS V14.00,2013-10-11 22:02:00,
2013-10-11 17:07:00,62.4,57.2,29.39,SE,138,6.0,16.0,83,0.02,,-RA,0.29,VWS V14.00,2013-10-11 22:07:00,
2013-10-11 17:12:00,62.1,57.2,29.38,SE,125,5.0,8.0,84,0.03,,-RA,0.30,VWS V14.00,2013-10-11 22:12:00,
2013-10-11 17:17:00,61.9,57.0,29.38,SE,133,5.0,14.0,84,0.03,,-RA,0.30,VWS V14.00,2013-10-11 22:17:00,
2013-10-11 17:22:00,61.8,57.2,29.38,ESE,120,7.0,12.0,85,0.04,,-RA,0.31,VWS V14.00,2013-10-11 22:22:00,
2013-10-11 17:27:00,61.7,57.2,29.37,SE,133,6.0,12.0,85,0.04,,-RA,0.31,VWS V14.00,2013-10-11 22:27:00,
2013-10-11 17:32:00,61.8,56.9,29.37,ESE,115,3.0,8.0,84,0.05,,RA,0.32,VWS V14.00,2013-10-11 22:32:00,
2013-10-11 17:37:00,61.8,56.9,29.37,ESE,123,6.0,16.0,84,0.05,,RA,0.32,VWS V14.00,2013-10-11 22:37:00,
2013-10-11 17:42:00,61.8,56.9,29.37,SE,139,7.0,20.0,84,0.06,,RA,0.33,VWS V14.00,2013-10-11 22:42:00,
2013-10-11 17:47:00,61.8,56.9,29.36,SE,132,4.0,20.0,84,0.06,, +RA,0.33,VWS V14.00,2013-10-11 22:47:00,
2013-10-11 17:52:00,62.0,57.1,29.36,ESE,122,4.0,29.0,84,0.06,, +RA,0.33,VWS V14.00,2013-10-11 22:52:00,
2013-10-11 17:57:00,62.1,56.9,29.36,SE,132,2.0,29.0,83,0.06,, +RA,0.33,VWS V14.00,2013-10-11 22:57:00,
2013-10-11 18:02:00,61.9,57.3,29.36,SE,144,4.0,23.0,85,0.06,,RA,0.34,VWS V14.00,2013-10-11 23:02:00,
2013-10-11 18:07:00,61.7,57.5,29.37,SE,143,2.0,29.0,86,0.06,,RA,0.34,VWS V14.00,2013-10-11 23:07:00,
2013-10-11 18:12:00,61.5,57.3,29.37,SSE,153,4.0,15.0,86,0.05,,RA,0.34,VWS V14.00,2013-10-11 23:12:00,
2013-10-11 18:17:00,61.5,57.6,29.36,SE,139,5.0,16.0,87,0.05,,RA,0.34,VWS V14.00,2013-10-11 23:17:00,
2013-10-11 18:22:00,61.7,57.5,29.36,SE,142,8.0,16.0,86,0.03,,-RA,0.34,VWS V14.00,2013-10-11 23:22:00,
2013-10-11 18:27:00,61.7,57.5,29.36,SE,142,12.0,19.0,86,0.03,,-RA,0.34,VWS V14.00,2013-10-11 23:27:00,
2013-10-11 18:32:00,61.8,57.2,29.36,SE,135,7.0,19.0,85,0.03,,-RA,0.34,VWS V14.00,2013-10-11 23:32:00,
2013-10-11 18:37:00,61.9,57.0,29.35,SSE,147,8.0,19.0,84,0.03,,SCT044,0.34,VWS V14.00,2013-10-11 23:37:00,
2013-10-11 18:42:00,62.0,57.1,29.35,SE,143,6.0,14.0,84,0.02,,SCT044,0.34,VWS V14.00,2013-10-11 23:42:00,
2013-10-11 18:47:00,62.1,56.9,29.35,SE,137,4.0,17.0,83,0.02,,SCT044,0.34,VWS V14.00,2013-10-11 23:47:00,
2013-10-11 18:52:00,62.2,57.0,29.35,SSE,150,5.0,21.0,83,0.01,,SCT044,0.34,VWS V14.00,2013-10-11 23:52:00,
2013-10-11 18:57:00,62.2,57.0,29.35,SE,144,0.0,21.0,83,0.01,,SCT044,0.34,VWS V14.00,2013-10-11 23:57:00,
2013-10-11 19:02:00,62.3,57.1,29.35,SE,136,13.0,18.0,83,0.00,,BKN090,0.34,VWS V14.00,2013-10-12 00:02:00,
2013-10-11 19:07:00,62.4,57.2,29.35,South,185,15.0,18.0,83,0.00,,BKN090,0.34,VWS V14.00,2013-10-12 00:07:00,
2013-10-11 19:12:00,62.4,57.2,29.35,SE,142,3.0,11.0,83,0.00,,BKN090,0.34,VWS V14.00,2013-10-12 00:12:00,
2013-10-11 19:17:00,62.3,57.1,29.35,SSE,157,3.0,12.0,83,0.00,,BKN090,0.34,VWS V14.00,2013-10-12 00:17:00,
2013-10-11 19:22:00,62.2,57.0,29.35,South,177,5.0,11.0,83,0.00,,BKN090,0.34,VWS V14.00,2013-10-12 00:22:00,
2013-10-11 19:27:00,62.1,56.9,29.35,SSE,150,4.0,17.0,83,0.00,,BKN090,0.34,VWS V14.00,2013-10-12 00:27:00,
2013-10-11 19:32:00,62.2,56.3,29.35,South,179,7.0,17.0,81,0.00,,BKN090,0.34,VWS V14.00,2013-10-12 00:32:00,
2013-10-11 19:37:00,62.0,55.4,29.36,SSW,194,5.0,17.0,79,0.00,,BKN090,0.34,VWS V14.00,2013-10-12 00:37:00,
2013-10-11 19:42:00,61.8,54.2,29.36,SSE,160,11.0,15.0,76,0.00,,BKN090,0.34,VWS V14.00,2013-10-12 00:42:00,
2013-10-11 19:47:00,61.6,52.5,29.36,SE,131,4.0,18.0,72,0.00,,BKN090,0.34,VWS V14.00,2013-10-12 00:47:00,
2013-10-11 19:52:00,61.2,51.0,29.36,SE,145,5.0,14.0,69,0.00,,BKN090,0.34,VWS V14.00,2013-10-12 00:52:00,
2013-10-11 19:57:00,60.9,50.3,29.36,SSE,166,0.0,18.0,68,0.00,,BKN090,0.34,VWS V14.00,2013-10-12 00:57:00,
2013-10-11 20:02:00,60.5,50.3,29.36,South,177,9.0,13.0,69,0.00,,CLR,0.34,VWS V14.00,2013-10-12 01:02:00,
2013-10-11 20:07:00,60.1,49.9,29.36,South,183,2.0,13.0,69,0.00,,CLR,0.34,VWS V14.00,2013-10-12 01:07:00,
2013-10-11 20:13:00,59.9,50.1,29.36,SE,145,0.0,13.0,70,0.00,,CLR,0.34,VWS V14.00,2013-10-12 01:13:00,
2013-10-11 20:18:00,59.7,49.9,29.36,SSE,160,7.0,13.0,70,0.00,,CLR,0.34,VWS V14.00,2013-10-12 01:18:00,
2013-10-11 20:23:00,59.5,50.1,29.37,SE,145,3.0,19.0,71,0.00,,CLR,0.34,VWS V14.00,2013-10-12 01:23:00,
2013-10-11 20:28:00,59.4,50.0,29.37,South,186,13.0,19.0,71,0.00,,CLR,0.34,VWS V14.00,2013-10-12 01:28:00,
2013-10-11 20:33:00,59.5,50.1,29.37,SSE,163,7.0,17.0,71,0.00,,CLR,0.34,VWS V14.00,2013-10-12 01:33:00,
2013-10-11 20:38:00,59.4,50.4,29.37,South,179,2.0,17.0,72,0.00,,CLR,0.34,VWS V14.00,2013-10-12 01:38:00,
2013-10-11 20:43:00,59.2,50.2,29.37,South,187,3.0,17.0,72,0.00,,CLR,0.34,VWS V14.00,2013-10-12 01:43:00,
2013-10-11 20:48:00,59.0,50.0,29.38,South,178,3.0,17.0,72,0.00,,CLR,0.34,VWS V14.00,2013-10-12 01:48:00,
2013-10-11 20:53:00,58.6,50.0,29.38,South,176,5.0,14.0,73,0.00,,CLR,0.34,VWS V14.00,2013-10-12 01:53:00,
2013-10-11 20:58:00,58.1,49.5,29.38,South,182,4.0,16.0,73,0.00,,CLR,0.34,VWS V14.00,2013-10-12 01:58:00,
2013-10-11 21:03:00,57.6,49.0,29.38,South,186,1.0,12.0,73,0.00,,FEW036,0.34,VWS V14.00,2013-10-12 02:03:00,
2013-10-11 21:08:00,57.1,48.9,29.39,South,172,1.0,14.0,74,0.00,,FEW036,0.34,VWS V14.00,2013-10-12 02:08:00,
2013-10-11 21:13:00,56.6,48.8,29.39,SSW,204,7.0,15.0,75,0.00,,FEW036,0.34,VWS V14.00,2013-10-12 02:13:00,
2013-10-11 21:18:00,56.2,48.8,29.39,SSW,199,15.0,15.0,76,0.00,,FEW036,0.34,VWS V14.00,2013-10-12 02:18:00,
2013-10-11 21:23:00,55.8,48.4,29.39,SSE,165,2.0,13.0,76,0.00,,FEW036,0.34,VWS V14.00,2013-10-12 02:23:00,
2013-10-11 21:28:00,55.4,48.3,29.40,South,173,4.0,14.0,77,0.00,,FEW036,0.34,VWS V14.00,2013-10-12 02:28:00,
2013-10-11 21:33:00,55.2,48.1,29.40,SSW,198,8.0,19.0,77,0.00,,FEW036,0.34,VWS V14.00,2013-10-12 02:33:00,
2013-10-11 21:38:00,55.0,48.3,29.40,SSW,193,1.0,19.0,78,0.00,,FEW036,0.34,VWS V14.00,2013-10-12 02:38:00,
2013-10-11 21:43:00,54.7,48.0,29.40,South,188,0.0,7.0,78,0.00,,FEW036,0.34,VWS V14.00,2013-10-12 02:43:00,
2013-10-11 21:48:00,54.6,47.9,29.41,South,177,0.0,13.0,78,0.00,,FEW036,0.34,VWS V14.00,2013-10-12 02:48:00,
2013-10-11 21:53:00,54.5,48.1,29.41,SSW,197,3.0,12.0,79,0.00,,FEW036,0.34,VWS V14.00,2013-10-12 02:53:00,
2013-10-11 21:58:00,54.4,47.7,29.41,South,180,1.0,14.0,78,0.00,,FEW036,0.34,VWS V14.00,2013-10-12 02:58:00,
2013-10-11 22:03:00,54.3,47.2,29.42,South,169,5.0,9.0,77,0.00,,BKN022,0.34,VWS V14.00,2013-10-12 03:03:00,
2013-10-11 22:08:00,54.0,47.3,29.42,South,188,7.0,11.0,78,0.00,,BKN022,0.34,VWS V14.00,2013-10-12 03:08:00,
2013-10-11 22:13:00,53.9,47.2,29.42,South,191,0.0,5.0,78,0.00,,BKN022,0.34,VWS V14.00,2013-10-12 03:13:00,
2013-10-11 22:18:00,53.8,47.1,29.42,South,183,3.0,17.0,78,0.00,,BKN022,0.34,VWS V14.00,2013-10-12 03:18:00,
2013-10-11 22:23:00,53.8,47.1,29.42,South,174,0.0,6.0,78,0.00,,BKN022,0.34,VWS V14.00,2013-10-12 03:23:00,
2013-10-11 22:28:00,53.8,47.1,29.43,SSW,203,3.0,14.0,78,0.00,,BKN022,0.34,VWS V14.00,2013-10-12 03:28:00,
2013-10-11 22:33:00,53.7,47.0,29.43,South,181,5.0,16.0,78,0.00,,BKN022,0.34,VWS V14.00,2013-10-12 03:33:00,
2013-10-11 22:38:00,53.7,47.0,29.43,South,169,4.0,16.0,78,0.00,,BKN022,0.34,VWS V14.00,2013-10-12 03:38:00,
2013-10-11 22:43:00,53.6,46.6,29.44,SSW,207,0.0,11.0,77,0.00,,BKN022,0.34,VWS V14.00,2013-10-12 03:43:00,
2013-10-11 22:48:00,53.5,46.5,29.44,South,191,4.0,12.0,77,0.00,,BKN022,0.34,VWS V14.00,2013-10-12 03:48:00,
2013-10-11 22:53:00,53.3,46.3,29.43,South,187,0.0,9.0,77,0.00,,BKN022,0.34,VWS V14.00,2013-10-12 03:53:00,
2013-10-11 22:58:00,53.2,46.2,29.43,South,176,5.0,12.0,77,0.00,,BKN022,0.34,VWS V14.00,2013-10-12 03:58:00,
2013-10-11 23:01:00,53.1,46.1,29.44,South,176,0.0,2.0,77,0.00,,OVC020,0.34,VWS V14.00,2013-10-12 04:01:00,
2013-10-11 23:02:00,53.1,46.1,29.44,South,183,5.0,14.0,77,0.00,,OVC020,0.34,VWS V14.00,2013-10-12 04:02:00,
2013-10-11 23:07:00,52.9,45.9,29.44,South,184,0.0,15.0,77,0.00,,OVC020,0.34,VWS V14.00,2013-10-12 04:07:00,
2013-10-11 23:12:00,52.8,46.1,29.44,South,184,3.0,9.0,78,0.00,,OVC020,0.34,VWS V14.00,2013-10-12 04:12:00,
2013-10-11 23:17:00,52.7,46.0,29.44,SSW,210,0.0,10.0,78,0.00,,OVC020,0.34,VWS V14.00,2013-10-12 04:17:00,
2013-10-11 23:22:00,52.6,46.0,29.44,South,188,2.0,11.0,78,0.00,,OVC020,0.34,VWS V14.00,2013-10-12 04:22:00,
2013-10-11 23:27:00,52.6,46.0,29.44,South,186,1.0,13.0,78,0.00,,OVC020,0.34,VWS V14.00,2013-10-12 04:27:00,
2013-10-11 23:32:00,52.6,46.0,29.45,SSE,160,1.0,9.0,78,0.00,,OVC020,0.34,VWS V14.00,2013-10-12 04:32:00,
2013-10-11 23:37:00,52.6,46.0,29.45,SSE,168,5.0,10.0,78,0.00,,OVC020,0.34,VWS V14.00,2013-10-12 04:37:00,
2013-10-11 23:42:00,52.5,45.8,29.44,SSE,164,4.0,9.0,78,0.00,,OVC020,0.34,VWS V14.00,2013-10-12 04:42:00,
2013-10-11 23:47:00,52.6,46.3,29.44,South,183,0.0,12.0,79,0.00,,OVC020,0.34,VWS V14.00,2013-10-12 04:47:00,
2013-10-11 23:52:00,52.5,46.2,29.45,South,191,4.0,9.0,79,0.00,,OVC020,0.34,VWS V14.00,2013-10-12 04:52:00,
2013-10-11 23:57:00,52.5,46.2,29.45,South,187,0.0,10.0,79,0.00,,OVC020,0.34,VWS V14.00,2013-10-12 04:57:00,